• Em Portugal
  • Lista de países
  • Para 7 dias
  • Temperatura da água
  • Mapas de satélite
  • Mapa do tempo
  • Widgets de tempo
  • user-avatar
    Iniciar Sessão

    Previsão horária em Zakrety

    Hoje, 20 Outubro, Sábado

    Tempo Temperatura Precipitação Vento Pressão Humidade
    00:00 +7°C° 0 mm 1 m/s 758 mmHg 86%
    01:00 +7°C° 0 mm 1 m/s 758 mmHg 86%
    02:00 +7°C° 0 mm 1 m/s 758 mmHg 86%
    03:00 +7°C° 0 mm 1 m/s 758 mmHg 86%
    04:00 +7°C° 0 mm 1 m/s 758 mmHg 86%
    05:00 +7°C° 0 mm 1 m/s 758 mmHg 83%
    06:00 +7°C° 0 mm 1 m/s 758 mmHg 81%
    07:00 +8°C° 0 mm 1 m/s 758 mmHg 79%
    08:00 +9°C° 0 mm 1 m/s 759 mmHg 74%
    09:00 +9°C° 0 mm 2 m/s 759 mmHg 68%
    10:00 +12°C° 0 mm 2 m/s 759 mmHg 63%
    11:00 +12°C° 0 mm 2 m/s 759 mmHg 60%
    12:00 +13°C° 0 mm 2 m/s 759 mmHg 58%
    13:00 +13°C° 0 mm 3 m/s 759 mmHg 56%
    14:00 +12°C° 0.1 mm 3 m/s 758 mmHg 60%
    15:00 +11°C° 0.1 mm 3 m/s 758 mmHg 64%
    16:00 +11°C° 0.1 mm 3 m/s 758 mmHg 68%
    17:00 +10°C° 0.1 mm 3 m/s 758 mmHg 72%
    18:00 +9°C° 0.1 mm 2 m/s 758 mmHg 76%
    19:00 +9°C° 0.1 mm 2 m/s 759 mmHg 80%
    20:00 +8°C° 0 mm 2 m/s 759 mmHg 81%
    21:00 +8°C° 0 mm 2 m/s 759 mmHg 83%
    22:00 +7°C° 0 mm 2 m/s 759 mmHg 84%
    23:00 +7°C° 0 mm 2 m/s 759 mmHg 87%

    Amanhã, 21 Outubro, Domingo

    Tempo Temperatura Precipitação Vento Pressão Humidade
    00:00 +6°C° 0 mm 2 m/s 759 mmHg 89%
    01:00 +7°C° 0 mm 1 m/s 759 mmHg 91%
    02:00 +7°C° 0 mm 1 m/s 759 mmHg 92%
    03:00 +7°C° 0 mm 1 m/s 759 mmHg 93%
    04:00 +6°C° 0 mm 1 m/s 759 mmHg 94%
    05:00 +6°C° 0 mm 1 m/s 760 mmHg 94%
    06:00 +6°C° 0 mm 1 m/s 760 mmHg 94%
    07:00 +6°C° 0 mm 1 m/s 760 mmHg 95%
    08:00 +8°C° 0 mm 1 m/s 761 mmHg 88%
    09:00 +10°C° 0 mm 1 m/s 761 mmHg 81%
    10:00 +11°C° 0 mm 1 m/s 761 mmHg 74%
    11:00 +12°C° 0 mm 1 m/s 761 mmHg 69%
    12:00 +13°C° 0 mm 1 m/s 761 mmHg 64%
    13:00 +14°C° 0 mm 1 m/s 761 mmHg 60%
    14:00 +13°C° 0 mm 1 m/s 761 mmHg 62%
    15:00 +13°C° 0 mm 1 m/s 761 mmHg 64%
    16:00 +11°C° 0 mm 0 m/s 761 mmHg 67%
    17:00 +11°C° 0 mm 1 m/s 761 mmHg 70%
    18:00 +10°C° 0 mm 1 m/s 761 mmHg 74%
    19:00 +9°C° 0 mm 1 m/s 761 mmHg 77%
    20:00 +8°C° 0 mm 2 m/s 761 mmHg 79%
    21:00 +8°C° 0 mm 2 m/s 761 mmHg 81%
    22:00 +7°C° 0 mm 2 m/s 761 mmHg 83%
    23:00 +7°C° 0 mm 2 m/s 760 mmHg 85%

    Depois de amanhã, 22 Outubro, Segunda-feira

    Tempo Temperatura Precipitação Vento Pressão Humidade
    00:00 +7°C° 0 mm 3 m/s 760 mmHg 87%
    01:00 +5°C° 0 mm 3 m/s 760 mmHg 89%
    02:00 +5°C° 0 mm 3 m/s 760 mmHg 90%
    03:00 +5°C° 0 mm 3 m/s 759 mmHg 91%
    04:00 +5°C° 0 mm 3 m/s 759 mmHg 92%
    05:00 +5°C° 0 mm 3 m/s 759 mmHg 93%
    06:00 +5°C° 0 mm 3 m/s 759 mmHg 93%
    07:00 +5°C° 0 mm 3 m/s 759 mmHg 93%
    08:00 +6°C° 0 mm 4 m/s 758 mmHg 85%
    09:00 +8°C° 0 mm 4 m/s 758 mmHg 76%
    10:00 +10°C° 0 mm 5 m/s 758 mmHg 68%
    11:00 +12°C° 0 mm 5 m/s 758 mmHg 64%
    12:00 +12°C° 0 mm 5 m/s 757 mmHg 61%
    13:00 +13°C° 0 mm 5 m/s 757 mmHg 57%
    14:00 +12°C° 0.4 mm 5 m/s 757 mmHg 64%
    15:00 +11°C° 0.4 mm 4 m/s 757 mmHg 70%
    16:00 +10°C° 0.4 mm 4 m/s 756 mmHg 77%
    17:00 +10°C° 0.5 mm 4 m/s 756 mmHg 78%
    18:00 +8°C° 0.5 mm 4 m/s 756 mmHg 80%
    19:00 +8°C° 0.5 mm 4 m/s 757 mmHg 82%
    20:00 +8°C° 0.2 mm 4 m/s 757 mmHg 80%
    21:00 +7°C° 0.2 mm 4 m/s 757 mmHg 78%
    22:00 +7°C° 0.2 mm 4 m/s 757 mmHg 76%
    23:00 +7°C° 0 mm 4 m/s 757 mmHg 75%

    23 Outubro, Terça-feira

    Tempo Temperatura Precipitação Vento Pressão Humidade
    00:00 +7°C° 0 mm 3 m/s 757 mmHg 75%
    01:00 +7°C° 0 mm 3 m/s 757 mmHg 75%
    02:00 +5°C° 0 mm 3 m/s 757 mmHg 77%
    03:00 +5°C° 0 mm 3 m/s 757 mmHg 79%
    04:00 +4°C° 0 mm 3 m/s 757 mmHg 81%
    05:00 +4°C° 0 mm 3 m/s 756 mmHg 83%
    06:00 +4°C° 0 mm 3 m/s 756 mmHg 84%
    07:00 +3°C° 0 mm 3 m/s 756 mmHg 85%
    08:00 +5°C° 0 mm 4 m/s 756 mmHg 79%
    09:00 +6°C° 0 mm 5 m/s 755 mmHg 72%
    10:00 +8°C° 0 mm 6 m/s 755 mmHg 66%
    11:00 +8°C° 0.1 mm 7 m/s 754 mmHg 66%
    12:00 +7°C° 0.1 mm 8 m/s 752 mmHg 66%
    13:00 +7°C° 0.1 mm 9 m/s 751 mmHg 65%
    14:00 +7°C° 1 mm 9 m/s 750 mmHg 70%
    15:00 +6°C° 1 mm 10 m/s 748 mmHg 76%
    16:00 +6°C° 1 mm 10 m/s 746 mmHg 81%
    17:00 +6°C° 1.3 mm 11 m/s 745 mmHg 81%
    18:00 +6°C° 1.3 mm 11 m/s 743 mmHg 82%
    19:00 +5°C° 1.3 mm 12 m/s 741 mmHg 82%
    20:00 +7°C° 2.3 mm 12 m/s 740 mmHg 83%
    21:00 +8°C° 2.3 mm 11 m/s 738 mmHg 84%
    22:00 +9°C° 2.3 mm 11 m/s 736 mmHg 85%
    23:00 +9°C° 1 mm 11 m/s 736 mmHg 82%

    24 Outubro, Quarta-feira

    Tempo Temperatura Precipitação Vento Pressão Humidade
    00:00 +9°C° 1 mm 11 m/s 735 mmHg 78%
    01:00 +9°C° 1 mm 10 m/s 735 mmHg 75%
    02:00 +8°C° 0.5 mm 10 m/s 736 mmHg 75%
    03:00 +8°C° 0.5 mm 10 m/s 737 mmHg 76%
    04:00 +7°C° 0.5 mm 9 m/s 737 mmHg 77%
    05:00 +7°C° 0.3 mm 9 m/s 738 mmHg 75%
    06:00 +6°C° 0.3 mm 9 m/s 739 mmHg 74%
    07:00 +6°C° 0.3 mm 9 m/s 740 mmHg 73%
    08:00 +6°C° 0.1 mm 9 m/s 741 mmHg 67%
    09:00 +6°C° 0.1 mm 10 m/s 741 mmHg 61%
    10:00 +6°C° 0.1 mm 10 m/s 742 mmHg 55%
    11:00 +6°C° 0.1 mm 10 m/s 743 mmHg 53%
    12:00 +6°C° 0.1 mm 10 m/s 743 mmHg 51%
    13:00 +6°C° 0.1 mm 11 m/s 744 mmHg 48%
    14:00 +6°C° 0.1 mm 9 m/s 744 mmHg 50%
    15:00 +5°C° 0.1 mm 8 m/s 744 mmHg 51%
    16:00 +5°C° 0.1 mm 7 m/s 745 mmHg 53%
    17:00 +4°C° 0.1 mm 7 m/s 745 mmHg 55%
    18:00 +4°C° 0.1 mm 6 m/s 745 mmHg 58%
    19:00 +4°C° 0.1 mm 6 m/s 746 mmHg 60%
    20:00 +4°C° 0.1 mm 6 m/s 746 mmHg 61%
    21:00 +4°C° 0.1 mm 6 m/s 746 mmHg 63%
    22:00 +4°C° 0.1 mm 6 m/s 747 mmHg 64%
    23:00 +5°C° 0 mm 5 m/s 747 mmHg 66%

    25 Outubro, Quinta-feira

    Tempo Temperatura Precipitação Vento Pressão Humidade
    00:00 +3°C° 0 mm 5 m/s 747 mmHg 68%
    01:00 +4°C° 0 mm 4 m/s 747 mmHg 69%
    02:00 +4°C° 0 mm 4 m/s 746 mmHg 71%
    03:00 +2°C° 0 mm 5 m/s 746 mmHg 73%
    04:00 +2°C° 0 mm 5 m/s 746 mmHg 75%
    05:00 +3°C° 0.4 mm 6 m/s 745 mmHg 78%
    06:00 +4°C° 0.4 mm 6 m/s 744 mmHg 82%
    07:00 +5°C° 0.4 mm 7 m/s 743 mmHg 86%
    08:00 +6°C° 0.3 mm 8 m/s 742 mmHg 82%
    09:00 +7°C° 0.3 mm 9 m/s 742 mmHg 78%
    10:00 +9°C° 0.3 mm 10 m/s 741 mmHg 74%
    11:00 +9°C° 0.1 mm 10 m/s 741 mmHg 74%
    12:00 +10°C° 0.1 mm 9 m/s 741 mmHg 75%
    13:00 +10°C° 0.1 mm 9 m/s 740 mmHg 76%
    14:00 +10°C° 0.2 mm 9 m/s 740 mmHg 75%
    15:00 +10°C° 0.2 mm 9 m/s 740 mmHg 74%
    16:00 +10°C° 0.2 mm 9 m/s 740 mmHg 72%
    17:00 +8°C° 0.1 mm 9 m/s 740 mmHg 71%
    18:00 +8°C° 0.1 mm 9 m/s 740 mmHg 71%
    19:00 +8°C° 0.1 mm 9 m/s 739 mmHg 70%
    20:00 +9°C° 0.3 mm 8 m/s 739 mmHg 71%
    21:00 +7°C° 0.3 mm 8 m/s 739 mmHg 73%
    22:00 +7°C° 0.3 mm 8 m/s 738 mmHg 75%
    23:00 +7°C° 0.3 mm 8 m/s 738 mmHg 72%
    Mostrar mais